| time (UTC) | temp C | wind direction | speed KPH | gust KPH | rain 1hr cm | rain 24hr cm | rain mn cm | humidity % | barometer mb |
| 20260505083857 | 13 | 180 | 6.4 | 6.4 | 0.00 | 0.00 | 0.25 | 97 | 1023.0 |
| 20260505083357 | 13 | 203 | 3.2 | 6.4 | 0.00 | 0.00 | 0.25 | 99 | 1023.0 |
| 20260505082856 | 13 | 203 | 4.8 | 8.0 | 0.00 | 0.00 | 0.25 | 99 | 1023.0 |
| 20260505082356 | 13 | 203 | 6.4 | 12.9 | 0.00 | 0.00 | 0.25 | 99 | 1023.0 |
| 20260505081857 | 12 | 158 | 4.8 | 4.8 | 0.00 | 0.00 | 0.25 | 99 | 1023.0 |
| 20260505081356 | 12 | 180 | 1.6 | 4.8 | 0.00 | 0.00 | 0.25 | 99 | 1024.0 |
| 20260505080857 | 12 | 158 | 3.2 | 4.8 | 0.00 | 0.00 | 0.25 | 99 | 1024.0 |
| 20260505080356 | 12 | 113 | 3.2 | 3.2 | 0.00 | 0.00 | 0.25 | 99 | 1024.0 |
| 20260505075856 | 12 | 113 | 1.6 | 3.2 | 0.00 | 0.00 | 0.25 | 99 | 1024.0 |
| 20260505075356 | 12 | 113 | 3.2 | 3.2 | 0.00 | 0.00 | 0.25 | 99 | 1024.0 |
| 20260505074857 | 12 | 113 | 3.2 | 3.2 | 0.00 | 0.00 | 0.25 | 99 | 1024.0 |
| 20260505074356 | 12 | 113 | 1.6 | 3.2 | 0.00 | 0.00 | 0.25 | 99 | 1024.0 |
| 20260505073857 | 12 | 113 | 3.2 | 3.2 | 0.00 | 0.00 | 0.25 | 99 | 1024.0 |
| 20260505073356 | 12 | 135 | 1.6 | 4.8 | 0.00 | 0.00 | 0.25 | 99 | 1024.0 |
| 20260505072857 | 12 | 135 | 4.8 | 4.8 | 0.00 | 0.00 | 0.25 | 99 | 1024.0 |
| 20260505072357 | 12 | 135 | 3.2 | 4.8 | 0.03 | 0.00 | 0.25 | 99 | 1024.0 |
| 20260505071856 | 12 | 158 | 3.2 | 4.8 | 0.03 | 0.00 | 0.25 | 99 | 1024.0 |
| 20260505071357 | 12 | 180 | 6.4 | 8.0 | 0.03 | 0.00 | 0.25 | 99 | 1024.0 |
| 20260505070857 | 12 | 180 | 6.4 | 6.4 | 0.03 | 0.00 | 0.25 | 99 | 1024.0 |
| 20260505070356 | 12 | 158 | 6.4 | 8.0 | 0.03 | 0.00 | 0.25 | 99 | 1024.0 |
| 20260505065856 | 12 | 113 | 4.8 | 8.0 | 0.03 | 0.00 | 0.25 | 99 | 1024.0 |
| 20260505065356 | 12 | 158 | 4.8 | 8.0 | 0.15 | 0.00 | 0.25 | 99 | 1024.0 |
| 20260505064857 | 12 | 158 | 6.4 | 6.4 | 0.15 | 0.00 | 0.25 | 99 | 1025.0 |
| 20260505064356 | 12 | 225 | 6.4 | 6.4 | 0.25 | 0.00 | 0.25 | 99 | 1026.0 |
| 20260505063858 | 12 | 203 | 4.8 | 14.5 | 0.25 | 0.00 | 0.25 | 99 | 1026.0 |
| 20260505063356 | 12 | 270 | 8.0 | 9.7 | 0.25 | 0.00 | 0.25 | 98 | 1026.0 |
| 20260505062856 | 13 | 248 | 8.0 | 9.7 | 0.23 | 0.00 | 0.23 | 98 | 1025.0 |
| 20260505062357 | 13 | 225 | 12.9 | 17.7 | 0.23 | 0.00 | 0.23 | 98 | 1026.0 |
| 20260505061858 | 13 | 203 | 19.3 | 19.3 | 0.23 | 0.00 | 0.23 | 97 | 1026.0 |
| 20260505061356 | 13 | 203 | 9.7 | 9.7 | 0.23 | 0.00 | 0.23 | 97 | 1025.0 |
| 20260505060856 | 13 | 225 | 9.7 | 14.5 | 0.23 | 0.00 | 0.23 | 96 | 1025.0 |
| 20260505060356 | 13 | 203 | 9.7 | 19.3 | 0.23 | 0.00 | 0.23 | 95 | 1025.0 |
| 20260505055857 | 13 | 225 | 19.3 | 22.5 | 0.15 | 0.00 | 0.15 | 93 | 1026.0 |
| 20260505055356 | 13 | 180 | 12.9 | 25.7 | 0.10 | 0.00 | 0.10 | 91 | 1026.0 |
| 20260505054856 | 13 | 225 | 20.9 | 29.0 | 0.03 | 0.00 | 0.03 | 88 | 1026.0 |
| 20260505054358 | 13 | 225 | 27.4 | 38.6 | 0.00 | 0.00 | 0.00 | 85 | 1026.0 |
| 20260505053856 | 14 | 225 | 25.7 | 35.4 | 0.00 | 0.00 | 0.00 | 83 | 1026.0 |
| 20260505053356 | 15 | 248 | 37.0 | 37.0 | 0.00 | 0.00 | 0.00 | 83 | 1026.0 |
| 20260505052857 | 15 | 225 | 11.3 | 25.7 | 0.00 | 0.00 | 0.00 | 82 | 1025.0 |
| 20260505052357 | 15 | 225 | 24.1 | 25.7 | 0.00 | 0.00 | 0.00 | 80 | 1025.0 |
| 20260505051856 | 15 | 270 | 14.5 | 24.1 | 0.00 | 0.00 | 0.00 | 78 | 1025.0 |
| 20260505051356 | 15 | 225 | 9.7 | 35.4 | 0.00 | 0.00 | 0.00 | 76 | 1026.0 |
| 20260505050856 | 16 | 248 | 12.9 | 25.7 | 0.00 | 0.00 | 0.00 | 74 | 1026.0 |
| 20260505050356 | 16 | 203 | 24.1 | 25.7 | 0.00 | 0.00 | 0.00 | 74 | 1026.0 |
| 20260505041356 | 16 | 180 | 9.7 | 19.3 | 0.00 | 0.00 | 0.00 | 76 | 1025.0 |
| 20260505040856 | 17 | 203 | 12.9 | 25.7 | 0.00 | 0.00 | 0.00 | 74 | 1025.0 |
| 20260505040356 | 17 | 203 | 19.3 | 30.6 | 0.03 | 0.00 | 0.00 | 71 | 1025.0 |
| 20260505035856 | 17 | 203 | 17.7 | 22.5 | 0.03 | 0.00 | 0.03 | 68 | 1025.0 |
| 20260505035356 | 17 | 203 | 17.7 | 17.7 | 0.03 | 0.00 | 0.03 | 68 | 1025.0 |
| 20260505034857 | 17 | 203 | 9.7 | 17.7 | 0.03 | 0.00 | 0.03 | 68 | 1025.0 |
| 20260505034356 | 17 | 225 | 9.7 | 14.5 | 0.03 | 0.00 | 0.03 | 68 | 1025.0 |
| 20260505033857 | 17 | 203 | 6.4 | 14.5 | 0.03 | 0.00 | 0.03 | 68 | 1025.0 |
| 20260505033356 | 17 | 180 | 14.5 | 14.5 | 0.03 | 0.00 | 0.03 | 68 | 1025.0 |
| 20260505032857 | 17 | 203 | 4.8 | 11.3 | 0.03 | 0.00 | 0.03 | 67 | 1025.0 |
| 20260505032356 | 17 | 180 | 4.8 | 12.9 | 0.03 | 0.00 | 0.03 | 67 | 1025.0 |
| 20260505031856 | 17 | 225 | 14.5 | 17.7 | 0.03 | 0.00 | 0.03 | 67 | 1025.0 |
| 20260505031357 | 17 | 203 | 12.9 | 20.9 | 0.03 | 0.00 | 0.03 | 68 | 1025.0 |
| 20260505030856 | 17 | 203 | 22.5 | 22.5 | 0.00 | 0.00 | 0.00 | 69 | 1025.0 |
| 20260505030359 | 16 | 180 | 9.7 | 9.7 | 0.00 | 0.00 | 0.00 | 70 | 1025.0 |
| 20260505025900 | 16 | 225 | 8.0 | 14.5 | 0.00 | 0.00 | 0.00 | 70 | 1025.0 |
| 20260505025358 | 16 | 180 | 3.2 | 6.4 | 0.00 | 0.00 | 0.00 | 69 | 1026.0 |
| 20260505024857 | 16 | 225 | 6.4 | 8.0 | 0.00 | 0.00 | 0.00 | 69 | 1026.0 |
| 20260505024358 | 16 | 203 | 4.8 | 8.0 | 0.00 | 0.00 | 0.00 | 69 | 1025.0 |
| 20260505023858 | 16 | 203 | 4.8 | 8.0 | 0.00 | 0.00 | 0.00 | 68 | 1026.0 |
| 20260505023358 | 16 | 203 | 4.8 | 6.4 | 0.00 | 0.00 | 0.00 | 68 | 1026.0 |
| 20260505022858 | 16 | 225 | 8.0 | 9.7 | 0.00 | 0.00 | 0.00 | 68 | 1026.0 |
| 20260505022358 | 16 | 225 | 11.3 | 11.3 | 0.00 | 0.00 | 0.00 | 68 | 1026.0 |
| 20260505021858 | 16 | 225 | 8.0 | 11.3 | 0.00 | 0.00 | 0.00 | 66 | 1026.0 |
| 20260505021358 | 16 | 225 | 9.7 | 17.7 | 0.00 | 0.00 | 0.00 | 64 | 1026.0 |
| 20260505020856 | 16 | 203 | 16.1 | 29.0 | 0.00 | 0.00 | 0.00 | 61 | 1026.0 |
| 20260505020357 | 15 | 180 | 3.2 | 4.8 | 0.00 | 0.00 | 0.00 | 57 | 1026.0 |
| 20260505015857 | 15 | 225 | 3.2 | 4.8 | 0.00 | 0.00 | 0.00 | 57 | 1025.0 |
| 20260505015356 | 15 | 113 | 3.2 | 4.8 | 0.00 | 0.00 | 0.00 | 57 | 1025.0 |
| 20260505014856 | 15 | 113 | 3.2 | 4.8 | 0.00 | 0.00 | 0.00 | 57 | 1025.0 |
| 20260505014356 | 15 | 113 | 3.2 | 3.2 | 0.00 | 0.00 | 0.00 | 56 | 1025.0 |
| 20260505013856 | 15 | 225 | 1.6 | 3.2 | 0.00 | 0.00 | 0.00 | 56 | 1025.0 |
| 20260505013356 | 15 | 203 | 1.6 | 3.2 | 0.00 | 0.00 | 0.00 | 56 | 1025.0 |
| 20260505012857 | 15 | 248 | 1.6 | 3.2 | 0.00 | 0.00 | 0.00 | 55 | 1025.0 |
| 20260505012356 | 15 | 203 | 1.6 | 3.2 | 0.00 | 0.00 | 0.00 | 55 | 1026.0 |
| 20260505011856 | 15 | 203 | 3.2 | 4.8 | 0.00 | 0.00 | 0.00 | 55 | 1026.0 |
| 20260505011356 | 15 | 203 | 3.2 | 4.8 | 0.00 | 0.00 | 0.00 | 55 | 1026.0 |
| 20260505010857 | 15 | 203 | 3.2 | 6.4 | 0.00 | 0.00 | 0.00 | 55 | 1026.0 |
| 20260505010356 | 15 | 158 | 6.4 | 8.0 | 0.00 | 0.00 | 0.00 | 55 | 1026.0 |
| 20260505005858 | 16 | 180 | 6.4 | 8.0 | 0.00 | 0.00 | 0.00 | 54 | 1026.0 |
| 20260505005358 | 16 | 180 | 3.2 | 8.0 | 0.00 | 0.00 | 0.00 | 54 | 1026.0 |
| 20260505004857 | 16 | 180 | 3.2 | 6.4 | 0.00 | 0.00 | 0.00 | 54 | 1026.0 |
| 20260505004358 | 16 | 225 | 3.2 | 9.7 | 0.00 | 0.00 | 0.00 | 53 | 1026.0 |
| 20260505003856 | 16 | 203 | 6.4 | 9.7 | 0.00 | 0.00 | 0.00 | 53 | 1026.0 |
| 20260505003358 | 16 | 203 | 9.7 | 9.7 | 0.00 | 0.00 | 0.00 | 53 | 1026.0 |
| 20260505002856 | 16 | 203 | 6.4 | 9.7 | 0.00 | 0.00 | 0.00 | 52 | 1026.0 |
| 20260505002356 | 16 | 180 | 4.8 | 9.7 | 0.00 | 0.00 | 0.00 | 51 | 1026.0 |
| 20260505001856 | 16 | 203 | 6.4 | 9.7 | 0.00 | 0.00 | 0.00 | 51 | 1026.0 |
| 20260505001357 | 17 | 203 | 6.4 | 8.0 | 0.00 | 0.00 | 0.00 | 50 | 1026.0 |
| 20260505000856 | 17 | 203 | 4.8 | 9.7 | 0.00 | 0.00 | 0.00 | 49 | 1026.0 |
| 20260505000358 | 18 | 203 | 4.8 | 9.7 | 0.00 | 0.00 | 0.00 | 49 | 1026.0 |
| 20260504235856 | 18 | 203 | 6.4 | 8.0 | 0.00 | 0.00 | 0.00 | 48 | 1026.0 |
| 20260504235356 | 18 | 180 | 11.3 | 11.3 | 0.00 | 0.00 | 0.00 | 47 | 1026.0 |
| 20260504234856 | 19 | 180 | 4.8 | 9.7 | 0.00 | 0.00 | 0.00 | 46 | 1026.0 |
| 20260504234357 | 18 | 203 | 12.9 | 12.9 | 0.00 | 0.00 | 0.00 | 46 | 1026.0 |
| 20260504233857 | 19 | 203 | 4.8 | 6.4 | 0.00 | 0.00 | 0.00 | 46 | 1026.0 |
| 20260504233356 | 19 | 203 | 9.7 | 9.7 | 0.00 | 0.00 | 0.00 | 46 | 1026.0 |
| 20260504232856 | 19 | 225 | 12.9 | 12.9 | 0.00 | 0.00 | 0.00 | 45 | 1026.0 |
| 20260504232356 | 20 | 180 | 9.7 | 12.9 | 0.00 | 0.00 | 0.00 | 45 | 1026.0 |
| 20260504231856 | 20 | 225 | 6.4 | 8.0 | 0.00 | 0.00 | 0.00 | 45 | 1026.0 |
| 20260504231356 | 20 | 225 | 8.0 | 12.9 | 0.00 | 0.00 | 0.00 | 45 | 1026.0 |
| 20260504230857 | 20 | 225 | 9.7 | 12.9 | 0.00 | 0.00 | 0.00 | 45 | 1026.0 |
| 20260504230356 | 20 | 225 | 11.3 | 17.7 | 0.00 | 0.00 | 0.00 | 45 | 1026.0 |
| 20260504225857 | 20 | 225 | 11.3 | 16.1 | 0.00 | 0.00 | 0.00 | 45 | 1026.0 |
| 20260504225357 | 20 | 270 | 16.1 | 16.1 | 0.00 | 0.00 | 0.00 | 45 | 1026.0 |
| 20260504224857 | 20 | 270 | 17.7 | 22.5 | 0.00 | 0.00 | 0.00 | 44 | 1026.0 |
| 20260504224356 | 20 | 248 | 16.1 | 22.5 | 0.00 | 0.00 | 0.00 | 44 | 1026.0 |
| 20260504223856 | 20 | 270 | 12.9 | 17.7 | 0.00 | 0.00 | 0.00 | 44 | 1026.0 |
| 20260504223357 | 20 | 270 | 6.4 | 17.7 | 0.00 | 0.00 | 0.00 | 43 | 1026.0 |
| 20260504222857 | 20 | 270 | 8.0 | 16.1 | 0.00 | 0.00 | 0.00 | 43 | 1026.0 |
| 20260504222358 | 20 | 270 | 11.3 | 19.3 | 0.00 | 0.00 | 0.00 | 42 | 1026.0 |
| 20260504221856 | 21 | 270 | 14.5 | 19.3 | 0.00 | 0.00 | 0.00 | 42 | 1026.0 |
| 20260504221357 | 21 | 248 | 14.5 | 19.3 | 0.00 | 0.00 | 0.00 | 40 | 1026.0 |
| 20260504220857 | 21 | 225 | 16.1 | 16.1 | 0.00 | 0.00 | 0.00 | 39 | 1026.0 |
| 20260504220357 | 22 | 248 | 12.9 | 24.1 | 0.00 | 0.00 | 0.00 | 38 | 1026.0 |
| 20260504215856 | 22 | 270 | 12.9 | 20.9 | 0.00 | 0.00 | 0.00 | 38 | 1026.0 |
| 20260504215356 | 21 | 203 | 14.5 | 16.1 | 0.00 | 0.00 | 0.00 | 38 | 1026.0 |
| 20260504214858 | 22 | 203 | 16.1 | 24.1 | 0.00 | 0.00 | 0.00 | 38 | 1026.0 |
| 20260504214356 | 22 | 248 | 11.3 | 25.7 | 0.00 | 0.00 | 0.00 | 38 | 1026.0 |
| 20260504213856 | 22 | 248 | 17.7 | 22.5 | 0.00 | 0.00 | 0.00 | 38 | 1026.0 |
| 20260504213358 | 22 | 270 | 8.0 | 25.7 | 0.00 | 0.00 | 0.00 | 38 | 1026.0 |
| 20260504212857 | 22 | 203 | 14.5 | 29.0 | 0.00 | 0.00 | 0.00 | 38 | 1025.0 |
| 20260504212356 | 22 | 203 | 22.5 | 27.4 | 0.00 | 0.00 | 0.00 | 38 | 1026.0 |
| 20260504211856 | 22 | 225 | 20.9 | 24.1 | 0.00 | 0.00 | 0.00 | 40 | 1026.0 |
| 20260504211357 | 22 | 225 | 9.7 | 19.3 | 0.00 | 0.00 | 0.00 | 41 | 1026.0 |
| 20260504210856 | 22 | 225 | 17.7 | 19.3 | 0.00 | 0.00 | 0.00 | 41 | 1026.0 |
| 20260504210356 | 22 | 248 | 19.3 | 19.3 | 0.00 | 0.00 | 0.00 | 41 | 1026.0 |
| 20260504205857 | 22 | 270 | 19.3 | 20.9 | 0.00 | 0.00 | 0.00 | 41 | 1026.0 |
| 20260504205357 | 22 | 225 | 19.3 | 22.5 | 0.00 | 0.00 | 0.00 | 41 | 1026.0 |
| 20260504204856 | 22 | 248 | 14.5 | 17.7 | 0.00 | 0.00 | 0.00 | 42 | 1026.0 |
| 20260504204356 | 22 | 225 | 11.3 | 24.1 | 0.00 | 0.00 | 0.00 | 42 | 1026.0 |
| 20260504203857 | 22 | 225 | 20.9 | 24.1 | 0.00 | 0.00 | 0.00 | 42 | 1026.0 |
| 20260504203356 | 22 | 248 | 16.1 | 19.3 | 0.00 | 0.00 | 0.00 | 42 | 1026.0 |
| 20260504202857 | 22 | 203 | 24.1 | 24.1 | 0.00 | 0.00 | 0.00 | 42 | 1026.0 |
| 20260504202356 | 22 | 225 | 16.1 | 24.1 | 0.00 | 0.00 | 0.00 | 42 | 1026.0 |
| 20260504201857 | 22 | 248 | 19.3 | 22.5 | 0.00 | 0.00 | 0.00 | 42 | 1026.0 |
| 20260504201356 | 22 | 203 | 9.7 | 20.9 | 0.00 | 0.00 | 0.00 | 43 | 1026.0 |
| 20260504200858 | 22 | 203 | 16.1 | 24.1 | 0.00 | 0.00 | 0.00 | 44 | 1026.0 |
| 20260504200356 | 21 | 203 | 14.5 | 19.3 | 0.00 | 0.00 | 0.00 | 44 | 1026.0 |
| 20260504195856 | 22 | 225 | 12.9 | 17.7 | 0.00 | 0.00 | 0.00 | 44 | 1026.0 |
| 20260504195356 | 21 | 225 | 17.7 | 24.1 | 0.00 | 0.00 | 0.00 | 44 | 1026.0 |
| 20260504194857 | 21 | 248 | 11.3 | 22.5 | 0.00 | 0.00 | 0.00 | 45 | 1027.0 |
| 20260504194358 | 21 | 203 | 11.3 | 16.1 | 0.00 | 0.00 | 0.00 | 45 | 1027.0 |
| 20260504193856 | 21 | 225 | 16.1 | 20.9 | 0.00 | 0.00 | 0.00 | 45 | 1027.0 |
| 20260504193357 | 21 | 270 | 24.1 | 24.1 | 0.00 | 0.00 | 0.00 | 45 | 1027.0 |
| 20260504192856 | 21 | 203 | 14.5 | 20.9 | 0.00 | 0.00 | 0.00 | 45 | 1027.0 |
| 20260504192356 | 21 | 248 | 14.5 | 24.1 | 0.00 | 0.00 | 0.00 | 45 | 1027.0 |
| 20260504191856 | 21 | 225 | 19.3 | 30.6 | 0.00 | 0.00 | 0.00 | 45 | 1027.0 |
| 20260504191356 | 21 | 225 | 12.9 | 24.1 | 0.00 | 0.00 | 0.00 | 45 | 1027.0 |
| 20260504190856 | 21 | 225 | 17.7 | 27.4 | 0.00 | 0.00 | 0.00 | 45 | 1027.0 |
| 20260504190356 | 21 | 225 | 20.9 | 24.1 | 0.00 | 0.00 | 0.00 | 45 | 1027.0 |
| 20260504185856 | 21 | 248 | 12.9 | 22.5 | 0.00 | 0.00 | 0.00 | 45 | 1027.0 |
| 20260504185358 | 21 | 203 | 22.5 | 25.7 | 0.00 | 0.00 | 0.00 | 45 | 1027.0 |
| 20260504184856 | 21 | 270 | 11.3 | 24.1 | 0.00 | 0.00 | 0.00 | 45 | 1027.0 |
| 20260504184357 | 21 | 248 | 24.1 | 24.1 | 0.00 | 0.00 | 0.00 | 45 | 1027.0 |
| 20260504183857 | 21 | 203 | 20.9 | 25.7 | 0.00 | 0.00 | 0.00 | 46 | 1027.0 |
| 20260504183357 | 21 | 225 | 29.0 | 29.0 | 0.00 | 0.00 | 0.00 | 46 | 1027.0 |
| 20260504182856 | 21 | 225 | 29.0 | 29.0 | 0.00 | 0.00 | 0.00 | 46 | 1027.0 |
| 20260504182357 | 21 | 248 | 22.5 | 24.1 | 0.00 | 0.00 | 0.00 | 47 | 1028.0 |
| 20260504181857 | 21 | 203 | 11.3 | 19.3 | 0.00 | 0.00 | 0.00 | 48 | 1028.0 |
| 20260504181356 | 20 | 225 | 32.2 | 32.2 | 0.00 | 0.00 | 0.00 | 48 | 1028.0 |
| 20260504180857 | 21 | 203 | 16.1 | 22.5 | 0.00 | 0.00 | 0.00 | 48 | 1028.0 |
| 20260504180356 | 20 | 225 | 17.7 | 24.1 | 0.00 | 0.00 | 0.00 | 48 | 1028.0 |
| 20260504175856 | 20 | 203 | 16.1 | 24.1 | 0.00 | 0.00 | 0.00 | 48 | 1028.0 |
| 20260504175357 | 21 | 203 | 11.3 | 19.3 | 0.00 | 0.00 | 0.00 | 48 | 1028.0 |
| 20260504174857 | 20 | 225 | 12.9 | 17.7 | 0.00 | 0.00 | 0.00 | 49 | 1028.0 |
| 20260504174356 | 20 | 225 | 25.7 | 27.4 | 0.00 | 0.00 | 0.00 | 49 | 1028.0 |
| 20260504173856 | 20 | 248 | 19.3 | 27.4 | 0.00 | 0.00 | 0.00 | 49 | 1028.0 |
| 20260504173358 | 20 | 225 | 17.7 | 22.5 | 0.00 | 0.00 | 0.00 | 49 | 1028.0 |
| 20260504172857 | 19 | 248 | 27.4 | 27.4 | 0.00 | 0.00 | 0.00 | 50 | 1028.0 |
| 20260504172356 | 19 | 248 | 24.1 | 30.6 | 0.00 | 0.00 | 0.00 | 50 | 1028.0 |
| 20260504171857 | 19 | 248 | 22.5 | 27.4 | 0.00 | 0.00 | 0.00 | 50 | 1028.0 |
| 20260504171356 | 19 | 225 | 27.4 | 27.4 | 0.00 | 0.00 | 0.00 | 50 | 1028.0 |
| 20260504170856 | 18 | 248 | 24.1 | 29.0 | 0.00 | 0.00 | 0.00 | 50 | 1028.0 |
| 20260504170356 | 18 | 248 | 22.5 | 32.2 | 0.00 | 0.00 | 0.00 | 50 | 1029.0 |
| 20260504160357 | 18 | 248 | 24.1 | 29.0 | 0.00 | 0.00 | 0.00 | 51 | 1029.0 |
| 20260504150856 | 17 | 248 | 33.8 | 33.8 | 0.00 | 0.00 | 0.00 | 52 | 1029.0 |
| 20260504150358 | 17 | 203 | 20.9 | 24.1 | 0.00 | 0.00 | 0.00 | 52 | 1029.0 |
| 20260504140857 | 16 | 203 | 40.2 | 40.2 | 0.00 | 0.00 | 0.00 | 52 | 1029.0 |
| 20260504140358 | 16 | 203 | 33.8 | 33.8 | 0.00 | 0.00 | 0.00 | 52 | 1029.0 |
| 20260504130359 | 15 | 225 | 16.1 | 24.1 | 0.00 | 0.00 | 0.00 | 54 | 1030.0 |
| 20260504110356 | 11 | 203 | 8.0 | 12.9 | 0.00 | 0.00 | 0.00 | 62 | 1030.0 |
| 20260504100357 | 10 | 225 | 14.5 | 14.5 | 0.00 | 0.00 | 0.00 | 61 | 1029.0 |